Other Public Products
Issued by NWS Grand Forks, ND

Home | Current Version | Previous Version | Text Only | Print | Product List | Glossary Off
Versions: 1 2 3 4 5 6 7 8 9 10 11 12 13 14 15 16 17 18 19 20 21 22 23 24 25 26 27 28 29 30 31 32 33 34 35 36 37 38 39 40 41 42 43 44 45 46 47 48 49 50

000
FPUS83 KFGF 092110
OPUFGF
PRAIRIE TO PINES WEATHER ROUNDUP
NATIONAL WEATHER SERVICE EASTERN NORTH DAKOTA/GRAND FORKS ND
300 PM CST TUE FEB 09 2016

 **SATELLITE DATA USED TO AUGMENT SKY COVER AT AUTOMATED STATIONS**
 *****  WEATHER ACROSS EASTERN NORTH DAKOTA  *****

CITY           SKY/WX    TMP DP  RH WIND       PRES   REMARKS
GRAND FORKS    PTSUNNY   11   3  70 N14       30.28F WCI  -5
GRAND FORKS AF CLOUDY    10   3  71 N10       30.28R WCI  -4
GRAND CITY NWS NOT AVBL
BUXTON           N/A     12   6  77 NW12        N/A  WCI  -2
DEVILS LAKE    CLOUDY    15   9  76 NE12      30.22S WCI   2
FARGO          CLOUDY    14   5  67 N15       30.26S WCI  -1
WAHPETON ARPT  CLOUDY    16   9  73 N13       30.25S WCI   2
$$

 *****  WEATHER ACROSS CENTRAL AND WESTERN NORTH DAKOTA  *****

CITY           SKY/WX    TMP DP  RH WIND       PRES   REMARKS
JAMESTOWN      CLOUDY    24   9  52 NE5       30.18F WCI  18
BISMARCK       CLOUDY    41  16  36 NW7       30.15F
MINOT          CLOUDY    38  16  40 N5        30.14S
MINOT AFB      MOSUNNY   35  19  50 CALM      30.13F
GARRISON         N/A     37  18  46 N8        30.13F
WILLISTON      CLOUDY    37  23  56 VRB6      30.14F
DICKINSON      CLOUDY    37  22  54 NW13      30.10F
HETTINGER      CLOUDY    43  22  43 NW16      30.12F
$$

 *****  OTHER OBSERVATIONS NORTHEAST NORTH DAKOTA  *****

CITY           SKY/WX    TMP DP  RH WIND       PRES   REMARKS
WALHALLA       FAIR       9   1  72 N10       30.30S WCI  -6
LANGDON        CLOUDY    10   3  72 N9        30.22F WCI  -2
CAVALIER       MOCLDY     7   1  78 N8        30.31R WCI  -6
GRAFTON        CLOUDY     9   3  78 N14       30.32R WCI  -8
CANDO          NOT AVBL
FORT TOTTEN      N/A     19   8  61 NE6       29.95S WCI  11
ROLLA          FLURRIES  14   9  79 E8        30.20F WCI   3
RUGBY          FAIR      19  12  73 E14       30.18F WCI   6
 ***** THE ABOVE OBSERVATIONS ARE NON NWS ARE NOT QUALITY
        CONTROLLED AND MAY MIS-REPORT RAIN FOR SNOW...
$$

 *****  OTHER OBSERVATIONS SOUTHEAST NORTH DAKOTA *****

CITY           SKY/WX    TMP DP  RH WIND       PRES   REMARKS
COOPERSTOWN    NOT AVBL
VALLEY CITY    CLOUDY    19   9  63 NE7       30.22F WCI  10
OAKES          CLOUDY    23  10  58 N8        30.20F WCI  14
GWINNER        CLOUDY    23  12  63 N7        30.22F WCI  15
SHEYENNE NWR     N/A     16   6  65 N7        29.95S WCI   6
BUFFALO          N/A     15   5  67 N9          N/A  WCI   3
WYNDMERE       NOT AVBL
 ***** THE ABOVE OBSERVATIONS ARE NON NWS ARE NOT QUALITY
       CONTROLLED AND MAY MIS-REPORT RAIN FOR SNOW...
$$

  *****  WEATHER ACROSS NORTHERN MINNESOTA  *****

CITY           SKY/WX    TMP DP  RH WIND       PRES   REMARKS
FLAG ISLAND    SUNNY      7  -2  66 NW16      30.19F WCI -11
WARROAD        SUNNY      9   0  66 W8        30.20F WCI  -4
ROSEAU         SUNNY      7   0  72 W10       30.21F WCI  -8
HALLOCK        SUNNY      7  -2  66 NW13      30.29S WCI  -9
THF RVR FALLS  SUNNY      9  -2  61 NW12      30.23S WCI  -6
HALSTAD        NOT AVBL
FOSSTON        SUNNY     12   0  57 NW9       30.20F WCI   0
BAUDETTE       SUNNY      5  -4  66 NW13      30.17F WCI -12
WASKISH        SUNNY      9  -2  61 NW8       30.17S WCI  -4
CROOKSTON      SUNNY      9   3  78 N15       30.27S WCI  -8
$$
  *****  WEATHER ACROSS CENTRAL AND WEST MINNESOTA  *****

CITY           SKY/WX    TMP DP  RH WIND       PRES   REMARKS
BEMIDJI        SUNNY      7  -1  68 W12       30.15S WCI  -8
PARK RAPIDS    SUNNY     14  -1  51 NW15      30.12F WCI  -1
WADENA         SUNNY     12   1  62 NW13      30.14S WCI  -3
DETROIT LAKES  SUNNY     10   3  72 N17       30.20S WCI  -7
MOORHEAD       CLOUDY    12   3  67 N14       30.25F WCI  -3
FERGUS FALLS   CLOUDY    12   5  73 N17G23    30.25R WCI  -5
ELBOW LAKE     CLOUDY    13   5  71 W17       30.20R HAZE    WCI  -4
MORRIS MN      CLOUDY    16   9  73 NW21      30.20R WCI  -2
STAPLES        SUNNY     12   0  57 N14       30.14R WCI  -3
WHEATON        CLOUDY    18  10  73 NW14      30.25F WCI   4
$$
  *****  WEATHER ELSEWHERE ACROSS MINNESOTA  *****

CITY           SKY/WX    TMP DP  RH WIND       PRES   REMARKS
DULUTH         SUNNY      9  -5  53 N21G26    29.99S WCI -11
INTRNTL FALLS  SUNNY      6  -6  57 N18       30.14R WCI -13
ELY            PTSUNNY    5  -2  72 NW10G20   30.03R WCI -10
CLOQUET        SUNNY     10  -4  52 NW14G23   30.03S WCI  -5
BRAINERD       SUNNY     11  -3  53 NW17      30.13R WCI  -6
HIBBING        SUNNY      6  -3  66 NW20      30.06S WCI -14
ALEXANDRIA     SUNNY     15   0  51 N20       30.15S WCI  -2
SAINT CLOUD    SUNNY     15   0  51 NW17G28   30.12F WCI  -1
MINNEAPOLIS    SUNNY     16  -1  47 NW21G28   30.10R WCI  -1
$$

  *****  WEATHER ACROSS SOUTH DAKOTA  *****

CITY           SKY/WX    TMP DP  RH WIND       PRES   REMARKS
SIOUX FALLS    PTSUNNY   22  10  60 NW18      30.21R WCI   7
BROOKINGS      CLOUDY    21  11  65 NW20      30.17S WCI   6
WATERTOWN      CLOUDY    22  10  60 N15       30.18S WCI   9
HURON          CLOUDY    30  12  47 NW6       30.22F WCI  24
SISSETON         N/A     20  10  65 N10       30.22F WCI   9
ABERDEEN       CLOUDY    32  12  43 CALM      30.20F
MITCHELL       CLOUDY    28  12  51 N9        30.25S WCI  19
PIERRE         PTSUNNY   34  13  41 SW13      30.18F WCI  25
MOBRIDGE       CLOUDY    36  16  44 SW8       30.13F
RAPID CITY     CLOUDY    52  29  41 NW22G28   30.12F
$$

  *****  SOME WEATHER IN NEARBY STATES *****

CITY           SKY/WX    TMP DP  RH WIND       PRES   REMARKS
GLASGOW MT     SUNNY     45  33  63 W13       30.10F
GREAT FALLS MT SUNNY     62  26  25 SW22      30.17F
CHEYENNE WY    SUNNY     46  22  38 NW24G36   30.27F
SCOTTSBLUFF NE PTSUNNY   50  32  50 NW14      30.21F
OMAHA NE       MOSUNNY   23   8  52 NW18      30.24S WCI   9
DES MOINES IA  MOSUNNY   18   4  54 NW21G29   30.13R WCI   1
DAVENPORT IA   MOSUNNY   17   6  62 NW23G31   29.97R WCI  -1
CHICAGO IL     FLURRIES  17   7  64 NW17      29.85R WCI   1
EAU CLAIRE WI  SUNNY     13  -1  54 N8        30.01R WCI   2
LA CROSSE WI   SUNNY     15  -1  49 NW16      30.00S WCI  -1
$$

  *****  SOME NATIONAL WEATHER *****

CITY           SKY/WX    TMP DP  RH WIND       PRES   REMARKS
LA GUARDIA NY  CLOUDY    34  22  61 E7        29.57S
RALEIGH NC     CLOUDY    40  19  43 W10G20    29.66R
ATLANTA GA     CLOUDY    32  21  64 W14G24    29.87R WCI  22
NEW ORLEANS LA MOSUNNY   58  13  17 NW16G28   30.07F
OKLAHOMA CITY  MOSUNNY   50  21  32 N28G35    30.27R
ALBUQUERQUE NM SUNNY     58  21  24 W5        30.34F
SALT LAKE CITY SUNNY     39  28  64 NW6       30.53F HAZE
LOS ANGELES CA MOSUNNY   87  24  10 W3        30.08F
BOISE ID       SUNNY     41  31  67 CALM      30.52F
SEATTLE WA     PTSUNNY   60  46  59 W5        30.15F
$$

*** WEATHER ACROSS MANITOBA...SASKATCHEWAN AND ONTARIO ***
                ***ONTARIO***

CITY           SKY/WX    TMP DP  RH WIND       PRES   REMARKS
GERALDTON      FLURRIES   1  -6  71 NW12G23   29.93R WCI -15
THUNDER BAY    MOSUNNY    7  -6  56 N15       30.02R WCI -11
SIOUX LOOKOUT  MOSUNNY    1  -9  60 N12       30.08S WCI -15
TORONTO        LGT RAIN  34  30  86 SW6       29.46S
BIG TROUT LK   SUNNY     -9 -18  64 NW8       30.19S WCI -26
PICKLE LAKE    CRYSTALS  -6 -18  54 N9        30.07S WCI -22
DRYDEN         FLURRIES   1  -8  66 NW10G17   30.11R WCI -14
KENORA         MOSUNNY    3  -6  66 NW12      30.16F WCI -13
$$
                *** MANITOBA***

CITY           SKY/WX    TMP DP  RH WIND       PRES   REMARKS
BRANDON        CLOUDY    10   5  79 E8        30.25F WCI  -1
DAUPHIN        CLOUDY     7   0  72 E5        30.31F WCI  -2
ISLAND LAKE    MOSUNNY   -9 -17  70 W7        30.34R WCI -24
PILOT MOUND      N/A      9   3  78 NE8         N/A  WCI  -4
THE PAS        CLOUDY    -4 -13  65 SE5       30.34F WCI -15
THOMPSON       MOSUNNY   -8 -17  65 SW3       30.37F
WINNIPEG       MOSUNNY    1  -6  71 N8        30.33S WCI -12
LYNN LAKE      FLURRIES  -9 -15  77 SE3       30.27F
CHURCHILL      CRYSTALS -24 -31  69 NW12      30.41S WCI -47
GILLAM         SUNNY    -13 -22  64 W9        30.37F WCI -31
$$
                ***SASKATCHEWAN***

CITY           SKY/WX    TMP DP  RH WIND       PRES   REMARKS
ESTEVAN        CLOUDY    34  21  60 VRB2      30.14F
KINDERSLEY     NOT AVBL
LLOYDMINSTER   PTSUNNY   39  30  70 W8        29.97F
PRINCE ALBERT  LGT SNOW  14  10  85 E13       30.13F DRFTSNOWWCI   0
REGINA         CLOUDY    28  23  80 E12       30.11F WCI  18
YORKTON        MOSUNNY   18  12  79 SE8       30.19F WCC1F1C2F2C3F3C4F4C5F5C6F6C7F7C8F8C9F9CaFaCbFbCcFcCdFdCe!


USA.gov is the U.S. government's official web portal to all federal, state and local government web resources and services.